PROFILE

 METAR AND TAF INFORMATION
ADDS - METARS form results

(1525 UTC 22 January 2019)
http://aviationweather.gov/metar/data/
 
BGBW 221450Z 09001KT 9999 SCT170 M12/M23 Q1002
TAF BGBW 221425Z 2215/2220 06006KT 9999 FEW200 

 AIRPORT MAP

 RUNWAY INFORMATION
Runway 07 Runway length 6004 ft Runway width 148 ft
Runway elevation 11 ft Runway displaced threshold 0 ft Runway heading 41
Runway 25 Runway length 6004 ft Runway width 148 ft
Runway elevation 112 ft Runway displaced threshold 0 ft Runway heading 221

 AIRPORT FREQUENCIES
Type AFIS Name AFIS Frequency 119.1 MHZ

 AIRPORT NEAR NAVIGATION AIDS
Type NDB Name Narsarsuaq Frequency 359 KHZ
Type DME Name Narsarsuaq Frequency 111850 KHZ